Dewpoint
73 72 72 71 71 70 68 67 57 61 60 55 56 58 57 64 63 62 62 64 62 65 66 67 64 64 64 63 63 64 64 57 61 51 50 66 70 71 72 73 74 74 74 74 74 74 74 74 75 76 76 76 76 77 76 76 76 76 76 76 76 76 76 76 76 76 76 76 76 75 75 75 75 75 75 74 75 74 74 75 75 75 75 75 74 74 75 75 75 74 74 74 74 74 74 75 75
73 71 71 71 70 70 65 67 58 58 58 55 56 61 60 62 62 61 62 63 65 64 65 66 68 69 67 63 63 61 62 66 66 66 68 69 71 72 73 73 74 73 74 74 74 74 75 75 75 76 76 76 76 76 76 76 76 76 76 76 76 76 76 76 76 76 76 75 75 75 75 75 75 75 75 74 75 75 74 74 74 75 74 74 74 75 75 75 74 74 74 74 74 74 74 74 74
71 70 70 70 69 69 69 66 56 56 54 52 56 58 63 61 61 62 63 64 66 66 66 67 67 66 65 65 61 61 60 67 67 67 68 70 70 72 73 73 74 74 74 74 74 74 75 76 77 76 76 76 76 76 76 76 77 77 77 77 76 76 76 76 76 76 75 75 76 75 75 75 75 75 75 74 75 75 74 74 74 75 75 75 74 75 75 75 74 74 74 74 74 74 74 74 74
70 69 67 68 66 68 62 62 57 55 53 54 56 60 60 61 61 63 65 66 67 66 66 64 65 67 65 61 62 63 63 64 67 67 67 69 70 72 73 73 74 74 74 74 74 75 75 76 77 77 76 76 76 76 76 76 76 77 76 76 76 76 76 75 75 75 75 76 75 75 76 75 74 75 75 75 75 75 75 75 75 75 74 75 75 74 74 74 75 75 74 75 74 74 74 74 74
69 69 68 67 64 61 62 60 59 58 54 56 55 62 61 62 63 64 66 66 67 66 66 65 65 66 66 63 63 61 64 67 67 68 68 70 72 72 73 73 73 73 73 74 74 75 75 77 77 77 76 76 76 76 76 77 77 77 76 76 76 76 75 75 75 75 75 75 75 76 75 75 75 75 75 75 75 75 75 75 75 75 75 75 75 75 74 75 75 74 74 74 74 74 74 74 74
73 72 73 70 64 68 64 58 57 57 59 62 59 60 62 63 63 65 65 66 66 67 67 66 62 62 61 63 64 64 66 64 67 68 69 70 72 72 73 73 72 72 73 74 74 75 75 77 76 76 76 76 76 77 77 77 76 76 76 76 76 76 76 75 75 75 75 75 75 75 75 75 75 75 75 75 75 75 75 75 75 75 75 75 75 74 74 74 74 74 74 74 74 74 74 74 74
69 70 71 68 67 67 58 57 56 58 60 61 61 62 64 64 65 65 64 64 66 66 66 64 61 60 60 63 64 65 67 68 67 68 70 71 71 72 72 72 72 72 73 74 74 75 75 77 76 76 76 76 76 76 76 76 76 76 76 76 76 76 76 75 75 75 75 76 75 75 75 75 75 75 75 74 74 75 75 75 75 74 75 75 75 75 74 75 74 74 74 74 74 74 73 74 74
74 68 68 61 60 62 57 58 57 60 61 62 63 63 64 65 66 65 64 63 63 64 66 64 66 61 61 63 63 66 67 67 68 70 70 71 71 71 72 72 72 73 73 74 74 75 77 76 76 76 77 76 76 76 76 76 76 76 76 76 76 76 75 75 75 75 75 75 75 75 75 76 75 75 75 75 75 75 75 75 74 74 74 74 75 75 75 74 74 74 75 74 73 73 74 74 75
73 69 69 63 58 60 58 57 58 63 61 62 64 66 66 66 66 65 63 65 65 65 65 63 61 60 62 63 63 66 67 68 69 70 70 71 71 71 71 71 72 73 73 74 74 75 75 76 76 76 76 76 76 76 76 76 76 76 76 76 76 76 76 75 75 76 75 75 75 75 75 75 75 75 75 75 75 75 74 74 74 74 75 75 74 75 74 74 74 74 74 74 73 73 73 74 74
69 68 61 60 61 55 57 57 56 61 61 64 64 65 66 67 66 65 64 64 64 65 65 60 60 61 63 63 64 66 67 69 69 69 70 70 70 70 71 72 73 73 73 74 75 75 75 77 76 76 76 76 76 76 76 76 76 76 76 76 76 76 75 75 75 75 75 75 75 75 75 75 75 75 75 75 75 75 75 74 74 74 74 74 74 74 74 74 74 74 75 74 73 73 74 74 74
64 67 68 60 56 54 55 56 58 61 61 63 64 66 67 68 66 65 65 64 65 63 63 62 62 62 63 63 64 67 68 68 68 68 69 69 69 70 71 72 73 73 74 74 75 75 75 75 77 76 76 77 77 76 76 76 76 76 76 75 75 75 75 75 74 74 76 76 75 75 75 75 75 75 75 75 75 75 75 75 75 75 75 74 74 74 74 74 74 75 75 75 74 73 74 74 74
61 62 64 56 54 54 56 57 59 62 62 63 63 66 67 66 66 64 64 63 63 63 61 62 61 63 62 63 65 66 67 67 67 67 68 68 69 70 71 72 73 74 74 74 75 75 75 75 75 76 77 77 77 77 77 76 76 76 75 75 76 75 76 75 75 75 76 76 76 75 75 75 75 75 75 75 75 75 75 75 76 75 75 74 74 73 73 74 75 75 75 75 74 73 73 74 74
63 63 60 57 56 58 59 59 61 61 63 62 63 66 69 66 64 66 65 65 65 62 60 64 63 63 61 63 65 66 66 66 67 67 68 68 68 70 72 73 73 74 74 75 74 74 75 75 75 75 76 77 77 77 76 76 76 76 76 75 75 76 75 75 75 76 76 76 76 75 75 75 75 75 75 75 75 75 75 75 75 75 75 74 74 73 74 74 75 75 75 75 75 73 74 74 74
64 63 61 55 59 58 59 60 62 60 61 62 65 67 67 65 66 66 66 64 64 64 63 63 63 63 62 63 65 64 65 66 66 67 67 67 68 70 72 72 73 73 74 74 74 74 74 75 75 75 75 75 76 76 76 75 76 76 76 76 76 76 76 76 75 75 76 76 76 75 75 75 75 76 75 75 75 75 75 75 75 75 75 74 73 73 73 74 75 75 75 75 75 74 73 74 74
63 65 61 58 57 59 61 57 59 60 60 63 64 65 65 66 67 67 65 64 64 69 68 63 63 62 60 61 62 63 65 66 66 66 66 67 68 69 70 70 71 72 73 73 74 74 74 74 75 75 75 75 75 75 75 76 76 76 76 76 76 76 76 76 76 75 76 76 76 75 75 76 75 76 76 76 75 76 76 76 75 75 75 74 74 74 74 74 75 75 76 75 75 74 74 74 73
63 63 61 56 55 55 55 57 57 58 61 64 65 66 66 67 69 65 67 68 68 67 68 65 63 66 62 61 62 64 65 65 65 65 66 66 67 68 68 70 70 71 72 73 74 74 74 74 75 75 75 74 75 75 76 76 76 76 76 76 76 77 76 76 76 75 76 76 75 75 75 76 75 75 75 75 76 76 76 75 76 76 75 75 74 75 75 75 75 75 76 76 75 75 74 73 73
61 63 56 55 53 55 57 56 58 58 62 65 67 66 64 65 67 69 71 70 67 66 67 68 67 65 62 62 63 64 64 65 65 65 65 65 66 67 69 69 70 71 72 72 73 73 74 75 75 75 75 75 75 76 75 76 76 77 76 76 76 77 76 76 76 76 75 75 75 75 75 75 75 75 75 75 76 76 76 76 76 76 76 76 76 75 75 75 75 75 76 75 75 75 75 74 73
59 58 55 53 52 52 54 56 58 62 62 65 66 65 65 64 66 67 70 68 67 67 67 67 67 62 62 63 64 64 64 64 64 64 64 64 66 67 67 68 69 70 71 72 72 73 74 75 75 75 75 75 75 76 76 76 76 76 76 75 76 76 76 76 75 75 76 75 75 76 75 76 74 74 75 76 76 76 76 76 76 76 76 76 76 76 76 76 75 75 75 75 75 75 74 74 76
54 54 53 52 53 54 59 58 61 62 64 65 65 66 66 65 67 69 66 65 66 65 66 66 64 62 62 63 63 63 63 63 63 63 63 65 66 66 66 68 69 70 70 71 72 73 74 74 75 75 75 75 75 75 76 76 75 75 75 76 76 76 76 77 76 76 75 75 75 75 76 75 74 75 75 76 77 76 76 76 76 76 76 76 76 76 76 75 75 75 75 75 75 75 76 75 74
51 50 50 51 53 56 60 60 62 62 65 65 65 65 66 67 67 69 66 65 64 64 64 64 61 61 62 62 63 63 63 63 63 63 63 64 65 65 66 67 68 69 70 71 71 73 73 74 74 74 74 75 75 75 75 75 75 75 75 75 75 75 75 76 75 75 75 74 74 74 75 75 75 74 76 76 75 75 75 76 76 76 76 76 76 77 75 75 75 75 75 75 79 78 74 74 75
49 49 49 51 52 53 61 61 61 63 66 65 65 65 65 66 67 68 66 64 64 64 62 62 61 61 61 62 63 63 63 62 62 62 63 64 64 65 66 67 68 69 70 70 72 72 73 73 74 74 74 75 74 75 75 75 75 75 75 75 75 75 75 75 75 75 75 75 74 75 75 75 75 75 74 74 74 74 74 74 75 74 74 75 77 74 74 75 75 74 75 76 74 75 74 73 73
47 49 50 50 53 55 62 62 62 64 65 66 66 65 65 68 67 68 65 62 62 63 62 61 62 62 62 62 62 63 62 62 62 62 63 63 63 64 65 66 67 68 69 70 71 72 72 73 73 73 74 74 74 75 75 75 75 74 75 75 75 74 74 74 75 75 75 75 75 75 75 74 75 74 74 74 74 74 74 74 74 73 74 75 77 74 73 73 73 73 74 74 74 74 74 73 72
46 46 47 50 51 53 63 61 62 64 65 65 64 65 67 66 65 67 67 66 68 70 66 62 63 62 62 62 62 62 62 62 62 62 62 63 63 64 64 65 66 67 69 70 71 71 72 72 72 73 73 73 74 74 74 75 74 74 74 75 74 74 74 74 74 75 75 75 74 75 74 74 74 74 74 74 74 74 74 74 74 75 74 74 76 74 73 74 73 73 73 74 74 74 73 73 73
46 44 44 44 49 52 60 60 62 63 64 64 65 65 65 66 63 67 66 67 69 69 68 64 65 62 62 61 62 62 61 62 61 62 62 62 63 63 64 64 66 67 69 69 70 71 72 71 71 72 72 72 73 74 74 74 74 74 74 76 74 74 74 74 74 74 75 74 74 74 76 74 74 75 74 74 74 74 74 74 74 74 74 74 75 73 73 74 74 73 74 74 74 73 71 72 72
42 43 43 42 42 55 58 60 61 63 63 63 64 64 66 65 64 66 65 67 67 67 67 63 65 61 61 61 61 61 61 61 61 62 62 62 63 63 64 65 65 66 68 68 69 70 70 71 71 71 72 72 73 73 73 73 73 73 74 74 74 75 73 74 74 75 75 74 74 75 76 74 74 75 74 74 73 73 73 74 74 74 73 73 74 74 73 73 73 73 74 73 73 72 71 71 71
41 41 42 41 40 57 57 60 61 63 62 62 62 63 64 64 65 64 65 65 65 68 67 62 63 61 61 61 60 61 61 61 61 61 62 62 62 62 63 64 64 66 67 68 69 70 70 70 70 71 71 72 72 73 73 73 73 73 73 74 73 75 73 74 74 75 75 74 73 74 77 74 74 74 74 73 73 73 73 74 74 73 73 75 74 73 74 73 73 73 74 74 74 73 71 71 71
33 31 32 36 39 53 58 59 61 62 61 62 62 63 64 65 62 61 66 65 64 65 66 61 61 60 60 60 60 61 61 61 61 61 62 62 62 62 62 63 64 66 67 68 69 69 70 70 70 70 71 72 72 72 73 73 73 73 73 73 73 74 73 74 74 74 74 74 73 74 75 75 74 74 73 73 73 73 73 74 73 73 74 73 74 74 74 74 74 74 74 73 73 73 72 72 74
30 28 25 22 23 37 57 59 60 61 61 61 63 62 63 65 64 61 62 64 63 64 63 60 60 60 60 60 61 62 61 61 62 61 61 61 62 61 62 63 64 66 67 67 68 69 70 69 70 70 71 72 72 72 73 73 72 73 73 73 73 74 74 73 73 73 74 73 72 73 74 74 76 74 73 73 72 72 72 72 72 72 72 73 74 74 74 75 75 75 75 75 74 74 74 73 73
31 24 16 20 21 23 57 59 60 60 60 61 62 60 61 62 62 62 61 64 63 63 63 60 60 60 60 60 61 62 61 61 62 61 61 61 62 61 61 63 64 65 66 67 68 69 69 69 70 70 72 72 72 72 72 72 72 73 73 72 73 74 73 73 72 72 73 72 72 73 73 74 75 73 72 72 75 72 72 71 72 74 73 74 73 75 76 75 74 74 73 75 74 74 73 71 74
29 26 20 17 19 19 36 59 59 59 59 61 59 53 57 60 61 61 61 62 63 62 61 60 60 60 60 60 61 62 62 62 62 62 62 61 62 61 61 63 65 65 66 67 67 68 69 69 70 70 72 71 71 71 72 72 72 72 73 72 74 73 72 72 72 71 72 73 73 74 74 74 75 73 72 72 73 71 71 71 72 73 73 74 75 76 74 74 74 73 74 72 75 73 72 72 71
26 25 21 17 18 18 26 57 58 56 60 60 56 49 54 58 60 61 61 62 61 60 60 60 60 60 60 60 61 61 62 63 62 63 62 62 61 61 61 63 65 65 66 66 67 68 69 69 71 70 72 71 72 71 71 71 72 72 72 72 73 73 72 71 72 72 73 74 75 75 76 77 75 74 73 73 72 72 71 71 72 73 74 75 75 75 73 75 74 74 75 72 73 72 71 72 72
26 22 19 17 16 19 20 34 56 55 59 59 52 51 53 56 58 60 61 61 61 59 60 60 60 60 60 60 60 61 61 62 63 62 62 62 61 61 61 63 64 65 65 66 67 68 68 70 71 70 71 71 71 71 71 71 72 72 72 73 72 72 72 71 72 73 74 75 75 76 77 77 76 75 75 74 73 72 72 73 73 74 75 75 75 76 75 73 74 75 76 73 71 72 73 70 71
25 22 22 18 15 15 16 19 45 57 59 58 52 48 55 56 58 60 60 60 59 59 60 60 60 61 60 60 60 60 61 61 62 62 62 62 61 61 61 63 64 64 65 65 67 67 68 70 71 71 71 71 71 71 71 71 72 72 71 72 71 72 71 72 72 73 74 75 75 76 77 78 76 76 76 75 74 73 74 74 74 76 76 75 75 75 75 76 74 75 74 75 73 72 72 71 69
26 22 22 20 14 15 15 16 21 55 57 55 53 53 53 55 57 59 59 59 58 59 59 60 61 61 61 61 60 60 61 61 61 62 61 62 62 61 61 65 63 64 64 65 66 66 68 69 70 71 71 70 71 71 71 71 71 72 71 71 73 70 70 71 72 73 73 74 75 76 77 77 77 77 76 75 75 75 74 75 75 75 76 75 74 74 74 75 74 73 73 75 74 72 71 69 67
24 27 24 18 18 14 13 14 17 53 55 53 52 51 53 55 57 59 58 59 58 58 58 59 60 60 61 61 61 61 61 61 61 61 61 61 61 61 61 62 63 63 63 64 65 66 69 69 70 71 70 70 71 71 71 71 71 71 71 71 71 69 70 71 72 72 73 74 75 76 77 77 77 76 76 76 76 76 74 75 75 76 76 74 73 73 73 76 76 74 73 73 75 73 71 71 69
24 24 22 17 13 12 12 13 14 51 52 50 50 48 52 56 58 59 58 58 58 58 59 58 59 59 60 61 61 61 61 61 61 61 61 61 61 61 61 61 62 62 63 63 65 66 68 69 69 70 70 70 71 71 71 70 70 70 70 70 70 69 69 70 71 72 73 74 75 76 76 77 77 77 76 76 75 75 75 74 75 75 75 74 72 72 72 73 73 74 74 72 73 74 75 73 70
27 27 26 23 21 19 16 12 11 45 47 48 48 48 54 56 58 59 58 58 58 58 59 58 58 59 59 61 61 61 61 61 62 62 61 61 61 61 62 61 61 62 62 62 63 66 67 68 68 68 69 70 70 70 70 69 69 69 69 68 68 69 67 68 70 71 72 73 75 76 76 77 77 77 77 75 75 77 75 75 75 74 74 73 72 72 73 73 73 75 75 75 74 70 69 68 68
27 26 24 22 21 18 18 16 16 14 39 41 47 49 54 56 57 58 58 58 58 58 58 58 58 59 59 60 61 61 61 62 62 62 61 62 61 61 61 61 62 61 61 62 62 66 67 68 68 68 69 69 69 69 69 68 69 68 68 67 67 67 67 68 69 71 72 74 75 75 76 77 77 77 77 75 75 74 74 75 74 74 73 74 73 74 73 75 74 74 74 71 73 69 69 69 67
26 25 24 21 18 17 16 16 15 15 21 23 47 49 53 56 57 58 58 58 58 58 58 58 58 58 58 60 60 61 61 61 61 61 61 61 61 61 61 61 61 60 60 61 62 65 67 68 68 68 68 68 69 69 69 68 68 68 67 67 66 66 68 68 69 72 73 74 75 75 76 77 77 77 77 76 74 73 74 74 74 74 73 75 74 73 73 73 74 74 73 71 71 71 72 72 67
25 23 21 19 18 16 14 16 16 15 15 38 48 48 51 56 57 57 58 58 58 59 59 59 59 58 58 58 59 60 61 61 61 61 61 61 61 61 61 61 60 60 60 61 62 65 67 68 68 68 68 68 69 69 70 68 69 68 67 66 65 65 66 69 70 72 73 74 74 75 76 76 76 77 77 76 75 74 74 74 75 74 74 75 73 73 73 73 74 74 74 74 71 68 68 67 72
22 19 18 17 16 16 14 14 15 16 15 40 50 50 52 54 55 56 57 58 59 59 59 59 59 59 59 59 59 60 60 61 61 61 61 61 61 61 61 61 60 59 59 61 62 65 66 67 68 68 68 68 69 69 69 69 70 68 67 66 66 66 69 69 70 72 73 73 73 74 75 76 76 76 77 76 76 75 75 75 76 75 74 75 74 73 73 74 74 74 74 73 71 69 67 70 72
21 20 18 17 17 16 16 16 14 15 25 49 49 46 47 52 53 54 56 56 57 58 58 58 59 58 60 59 59 60 62 61 61 61 61 61 61 61 61 61 60 59 59 61 61 65 66 67 67 67 68 68 69 69 69 69 70 67 66 64 63 63 64 69 69 71 72 72 72 74 75 75 76 76 76 76 76 76 75 75 76 75 75 75 75 74 74 74 74 74 74 73 72 72 70 69 69
21 20 20 18 17 17 16 16 16 19 16 31 43 42 44 50 51 53 54 55 55 57 57 58 58 58 60 59 60 60 60 60 61 61 61 61 61 61 61 61 60 60 59 61 61 64 66 67 67 67 68 68 69 69 69 70 69 67 65 63 62 62 64 67 70 71 72 72 72 73 74 75 75 75 75 75 75 76 76 76 75 75 76 76 77 75 75 75 75 74 75 73 73 74 71 69 69
21 22 21 21 20 18 17 17 16 20 25 18 19 39 46 46 49 52 53 53 54 56 57 57 58 58 59 60 60 61 60 60 61 61 61 61 61 61 61 61 61 60 59 60 61 64 67 67 67 67 68 69 69 69 69 69 68 68 66 64 64 63 64 64 68 71 72 72 71 73 74 74 74 74 74 74 74 75 76 76 75 75 76 76 77 75 76 76 75 75 75 74 73 74 72 70 69
23 23 21 20 20 19 18 16 16 18 18 17 21 33 41 45 48 51 52 51 53 55 57 57 58 59 59 60 60 61 61 60 60 60 61 60 61 61 62 62 61 61 59 60 61 63 67 67 67 68 68 69 69 69 70 69 68 68 66 65 65 65 65 65 67 71 71 72 71 72 73 73 74 74 74 74 74 74 76 75 75 75 75 75 78 76 76 75 74 74 74 73 74 74 73 72 70
22 22 22 21 21 20 22 22 22 28 17 19 25 17 21 34 44 49 51 51 52 55 56 57 58 59 60 60 60 61 61 61 61 60 60 60 61 61 62 62 62 61 60 60 61 63 66 67 67 67 69 69 69 69 70 69 68 69 66 67 65 64 66 65 66 68 70 71 70 71 73 73 73 73 73 73 74 74 76 75 75 75 75 75 77 75 74 74 74 75 74 73 74 73 74 74 71
22 23 20 20 21 25 32 32 32 26 17 26 23 17 13 13 39 48 50 50 52 54 56 57 58 59 60 61 61 61 61 61 61 61 60 60 61 61 62 61 63 62 61 59 61 62 66 66 67 67 69 69 70 70 70 69 68 68 66 67 66 64 65 65 65 66 68 69 70 71 71 72 73 72 73 73 74 74 75 75 75 75 75 76 76 74 73 73 73 74 74 74 75 74 74 74 74
17 18 19 20 24 23 27 29 30 17 22 29 26 18 11 13 21 48 50 52 52 53 55 56 57 59 60 61 61 61 61 61 61 61 61 61 61 61 62 61 62 63 61 59 61 62 65 66 67 67 68 69 70 70 69 69 68 67 66 67 66 65 65 64 64 65 65 67 69 70 71 71 72 72 73 73 73 74 74 75 75 75 75 75 75 74 73 73 72 74 74 74 75 75 74 74 73
17 23 27 20 21 20 16 21 16 17 16 23 22 19 20 19 22 44 49 50 51 53 54 56 57 59 60 61 61 61 61 61 61 61 61 61 61 60 61 61 62 63 62 60 61 61 63 66 66 67 67 69 70 69 69 69 68 67 66 66 66 66 65 64 63 65 64 66 69 69 70 71 72 71 71 73 72 73 74 74 75 75 74 75 74 74 74 74 72 74 74 74 74 75 74 74 73
16 17 28 20 17 18 14 24 23 21 21 24 17 19 20 26 22 30 49 50 51 52 53 55 57 59 60 61 61 61 61 61 61 61 60 61 61 60 61 61 62 63 63 61 62 62 62 66 66 66 67 68 70 69 68 68 68 67 66 66 66 67 65 64 63 64 65 64 67 69 70 70 71 71 71 72 72 72 74 74 75 74 74 74 75 74 73 74 74 73 73 73 73 74 74 74 73
19 18 18 22 25 19 17 19 15 14 17 21 21 16 23 21 26 22 42 49 49 50 52 53 56 59 60 61 61 61 61 61 61 61 60 60 61 61 61 61 62 63 63 63 63 63 62 64 66 66 67 68 69 69 68 68 68 67 65 66 66 68 65 64 62 64 66 65 65 68 69 70 70 71 71 71 72 72 73 74 74 74 74 74 74 75 74 73 75 74 73 73 73 74 74 74 74
16 20 20 19 20 29 17 26 22 25 20 19 23 21 26 19 30 28 20 14 33 49 50 52 53 57 59 60 60 60 61 61 61 61 60 60 61 61 61 62 62 63 64 63 64 64 63 64 66 66 67 68 68 69 68 67 68 67 65 65 66 68 67 65 64 65 66 66 65 67 68 70 70 71 71 71 71 72 72 73 74 73 74 74 74 75 74 73 74 74 74 74 73 75 74 74 74
20 18 18 17 22 18 26 34 31 25 20 17 31 21 21 26 23 21 21 16 13 39 45 49 51 54 58 59 60 60 60 60 61 61 60 61 60 61 61 61 62 63 63 64 65 64 64 64 65 66 66 68 68 69 68 67 67 67 65 64 66 66 67 65 63 63 64 66 66 66 67 69 70 70 71 72 71 71 72 72 73 73 73 75 74 75 74 74 74 73 73 73 73 74 74 73 73
16 15 16 20 24 21 21 14 24 22 19 22 24 24 24 24 24 31 23 18 15 17 44 46 50 53 57 58 59 60 60 60 61 61 61 61 60 60 60 61 62 62 63 64 65 65 65 65 65 65 66 67 68 68 68 67 67 67 66 64 65 66 67 66 63 63 64 65 66 66 67 69 70 70 71 71 71 71 71 74 73 73 73 74 75 74 74 74 74 73 73 73 73 73 74 74 73
13 13 17 17 19 18 29 23 17 15 17 18 21 26 27 30 29 39 43 42 42 46 30 46 48 53 56 57 58 59 60 60 60 61 61 60 60 60 60 61 62 62 64 64 65 66 66 65 65 65 65 66 67 68 68 67 67 66 66 65 64 65 66 66 66 64 64 64 64 65 66 67 69 70 71 71 71 71 71 72 72 72 72 73 74 74 74 74 74 73 74 73 73 73 73 73 74
15 14 13 18 18 27 23 24 26 21 20 20 18 23 21 32 43 49 52 53 53 53 50 35 47 52 55 57 57 58 59 60 60 61 61 61 60 60 60 60 61 62 63 64 65 65 66 66 66 65 66 66 67 68 69 67 66 66 66 66 65 65 66 66 66 66 64 64 63 64 64 66 67 70 70 70 70 70 71 71 72 72 72 72 73 74 74 74 74 74 73 73 74 73 73 72 73
13 11 14 14 17 20 19 24 20 23 22 20 20 16 29 42 51 51 52 53 54 53 52 44 42 50 54 56 57 58 59 59 60 60 61 61 61 60 60 60 61 63 63 64 64 65 66 66 66 66 66 66 66 67 68 68 67 66 66 66 65 65 65 65 65 65 65 65 64 64 63 63 66 68 69 69 69 69 70 71 71 72 72 72 72 73 74 74 74 74 74 74 74 74 73 73 73
14 12 20 21 21 20 13 14 23 20 20 19 15 15 30 34 43 50 51 53 54 54 52 52 45 49 53 56 57 58 58 59 59 60 60 61 61 61 61 60 61 62 63 64 65 65 65 66 66 66 66 66 66 66 67 68 68 66 65 66 66 65 65 65 64 64 65 65 65 64 64 64 64 66 68 68 68 68 69 70 70 71 72 72 72 73 74 74 74 74 74 74 73 74 73 73 73